Weather History for Hobart, OK

Change the Weather History Date:

Monday, February 10, 2014

  Actual Average Record
Temperature  
Mean Temperature 20 °F -  
Max Temperature 24 °F 51 °F 75 °F (1999)
Min Temperature 17 °F 29 °F 0 °F (2011)
Degree Days  
Heating Degree Days 44    
Moisture  
Dew Point 17 °F    
Average Humidity 91    
Maximum Humidity 100    
Minimum Humidity 85    
Precipitation  
Precipitation 0.00 in - - ()
Sea Level Pressure  
Sea Level Pressure 30.34 in    
Wind  
Wind Speed 17 mph (NE)    
Max Wind Speed 21 mph    
Max Gust Speed 26 mph    
Visibility 4 miles    
Events      
Averages and records for this station are not official NWS values.
T = Trace of Precipitation, MM = Missing Value Source: NWS Daily Summary

Daily Weather History Graph

Daily Weather History Graph

Search for Another Location

Airport:

Trip Planner

Search our weather history database for the weather conditions in past years. The results will help you decide how hot, cold, wet, or windy it might be!

Date:

Astronomy

Feb. 10, 2014 Rise Set
Actual Time 7:27 AM CST 6:14 PM CST
Civil Twilight 7:01 AM CST 6:40 PM CST
Nautical Twilight 6:31 AM CST 7:10 PM CST
Astronomical Twilight 6:01 AM CST 7:39 PM CST
Moon 2:48 PM CST (2/10) 4:17 AM CST (2/10)
Length of Visible Light 11h 39m
Length of Day
10h 46m
Waxing Gibbous, 85% of the Moon is Illuminated
Feb 10
Waxing Gibbous
Feb 14
Full
Feb 22
Last Quarter
Mar 1
New
Mar 8
First Quarter

Hourly Weather History & Observations

Time (CST) Temp. Windchill Dew Point Humidity Pressure Visibility Wind Dir Wind Speed Gust Speed Precip Events Conditions
12:11 AM 24.8 °F 11.1 °F 23.0 °F 93% 30.26 in 1.8 mi NNE 18.4 mph - N/A   Overcast
12:38 AM 24.8 °F 11.1 °F 21.2 °F 86% 30.28 in 2.0 mi NNE 18.4 mph 26.5 mph N/A   Overcast
12:53 AM 23.0 °F 8.0 °F 21.9 °F 96% 30.33 in 2.0 mi NNE 20.7 mph - N/A   Overcast
1:02 AM 23.0 °F 8.3 °F 21.2 °F 93% 30.29 in 2.5 mi NNE 19.6 mph - N/A   Overcast
1:53 AM 21.9 °F 7.3 °F 21.0 °F 96% 30.33 in 2.5 mi NNE 18.4 mph - N/A   Overcast
2:53 AM 21.0 °F 6.2 °F 19.9 °F 96% 30.33 in 3.0 mi NNE 18.4 mph - N/A   Overcast
3:53 AM 19.9 °F 5.2 °F 18.0 °F 92% 30.33 in 4.0 mi NNE 17.3 mph 25.3 mph N/A   Overcast
4:53 AM 19.9 °F 4.8 °F 18.0 °F 92% 30.34 in 4.0 mi NNE 18.4 mph - N/A   Overcast
5:53 AM 19.0 °F 3.2 °F 17.1 °F 92% 30.34 in 3.0 mi NNE 19.6 mph - N/A   Overcast
6:11 AM 17.6 °F 2.7 °F 17.6 °F 100% 30.30 in 2.5 mi NNE 16.1 mph - N/A   Overcast
6:35 AM 17.6 °F 0.9 °F 15.8 °F 93% 30.30 in 3.0 mi NNE 20.7 mph - N/A   Overcast
6:53 AM 18.0 °F 2.2 °F 17.1 °F 96% 30.36 in 3.0 mi NNE 18.4 mph - N/A   Overcast
7:53 AM 18.0 °F 2.6 °F 15.1 °F 88% 30.38 in 4.0 mi NNE 17.3 mph - N/A   Overcast
8:15 AM 17.6 °F 1.7 °F 14.0 °F 86% 30.33 in 4.0 mi NNE 18.4 mph - N/A   Overcast
8:53 AM 17.1 °F 1.0 °F 14.0 °F 88% 30.40 in 4.0 mi NE 18.4 mph - N/A   Overcast
9:53 AM 17.1 °F 1.0 °F 14.0 °F 88% 30.42 in 4.0 mi NNE 18.4 mph - 0.00 in   Overcast
10:32 AM 17.6 °F 2.2 °F 15.8 °F 93% 30.35 in 2.5 mi NE 17.3 mph - N/A   Overcast
10:53 AM 17.1 °F 1.0 °F 15.1 °F 92% 30.40 in 2.0 mi NE 18.4 mph - N/A   Overcast
11:53 AM 18.0 °F 4.8 °F 16.0 °F 92% 30.40 in 3.0 mi NNE 12.7 mph - N/A   Overcast
12:18 PM 17.6 °F 4.3 °F 15.8 °F 93% 30.33 in 2.5 mi NNE 12.7 mph - N/A   Overcast
12:26 PM 17.6 °F 3.7 °F 15.8 °F 93% 30.32 in 3.0 mi NNE 13.8 mph - N/A   Overcast
12:53 PM 18.0 °F 4.8 °F 16.0 °F 92% 30.37 in 3.0 mi NE 12.7 mph - N/A   Overcast
1:53 PM 19.0 °F 5.6 °F 17.1 °F 92% 30.34 in 3.0 mi NNE 13.8 mph - N/A   Overcast
2:44 PM 19.4 °F 7.2 °F 17.6 °F 93% 30.26 in 2.5 mi NNE 11.5 mph - N/A   Overcast
2:53 PM 19.9 °F 7.3 °F 18.0 °F 92% 30.32 in 2.5 mi NE 12.7 mph - N/A   Overcast
3:53 PM 19.9 °F 7.3 °F 18.0 °F 92% 30.32 in 3.0 mi NE 12.7 mph - N/A   Overcast
4:53 PM 21.0 °F 7.1 °F 18.0 °F 88% 30.32 in 3.0 mi NE 16.1 mph - N/A   Overcast
5:53 PM 21.0 °F 8.6 °F 19.0 °F 92% 30.33 in 3.0 mi NE 12.7 mph - N/A   Overcast
6:53 PM 19.9 °F 6.2 °F 19.0 °F 96% 30.35 in 4.0 mi NE 15.0 mph - N/A   Overcast
7:53 PM 19.9 °F 6.7 °F 18.0 °F 92% 30.37 in 6.0 mi NE 13.8 mph - N/A   Overcast
8:01 PM 19.4 °F 5.0 °F 17.6 °F 93% 30.30 in 6.0 mi NE 16.1 mph - N/A   Overcast
8:53 PM 19.9 °F 4.3 °F 17.1 °F 89% 30.39 in 8.0 mi NE 19.6 mph - N/A   Overcast
9:53 PM 19.9 °F 4.8 °F 16.0 °F 85% 30.40 in 9.0 mi NE 18.4 mph - N/A   Overcast
10:01 PM 19.4 °F 5.0 °F 15.8 °F 86% 30.33 in 9.0 mi NE 16.1 mph - N/A   Overcast
10:53 PM 19.0 °F 4.5 °F 15.1 °F 85% 30.41 in 9.0 mi NE 16.1 mph - N/A   Overcast
11:31 PM 19.4 °F 5.5 °F 15.8 °F 86% 30.35 in 9.0 mi NNE 15.0 mph - N/A   Overcast
11:53 PM 19.0 °F 5.0 °F 15.1 °F 85% 30.41 in 10.0 mi NNE 15.0 mph - N/A   Overcast